Location: Nitra
(0.0000°N, 18.0833°E)
Time: 15:41:18
(UTC+02:00)

A-11 Canister half - Pass Details

Date: 07 April 2023
Orbit: 1513 x 1686 km, 47.2° (Epoch: 02 June)

Event Time Altitude Azimuth Distance (km) Brightness Sun altitude
Exits shadow 03:20:03 28° 119° (ESE) 2,749 10.4 -52.0°
Drops below altitude 10° 03:24:04 10° 128° (SE) 3,886 11.4 -51.0°
Sets 03:27:14 0° 132° (SE) 4,854 12.0 -50.2°
